Flag for Germany Weather past 2 weeks in Crailsheim, Baden-Württemberg, Germany

Now
59 °F

Overcast.


Feels Like: 58 °F
Forecast: 45 / 66 °F
Wind: 6 mph from East

Location: Niederstetten

Current Time: May 24, 2015 at 11:27:57 AM

Latest Report: May 24, 2015 at 10:20 AM


Visibility: N/A

Pressure: 30.09 "Hg

Humidity: 68%

Dew point: 48 °F

Location of CrailsheimLocation

Historic Weather in Crailsheim — Graph

°F

Crailsheim temperature yesterday

Maximum temperature yesterday: 63 °F (at 12:20 PM)
Minimum temperature yesterday: 45 °F (at 5:20 AM)
Average temperature yesterday: 56 °F

Past Weeks' High & Low Weather Summary

 TemperatureHumidityPressure
High82 °F (May 12, 2:20 PM)94% (May 12, 10:20 PM)30.33 "Hg (May 12, 10:20 PM)
Low41 °F (May 21, 6:20 AM)26% (May 12, 2:20 PM)29.74 "Hg (May 18, 7:20 PM)
Average57 °F60%30.09 "Hg
* Reported May 9 10:20 AM — May 24 10:20 AM, Crailsheim, Weather by CustomWeather, © 2015

Note: Actual official high and low records may vary slightly from our data, if they occured in-between our weather recording intervals... More about our weather records

Advertising

Crailsheim weather history for previous 24 hours

 ConditionsComfort  
Time TempWeatherWind HumidityBarometerVisibility
10:20 AM
Sun, May 24
59 °FOvercast.6 mph68%30.09 "HgN/A
9:20 AM57 °FOvercast.6 mph72%30.09 "HgN/A
8:20 AM55 °FPartly sunny.9 mph77%30.09 "HgN/A
7:20 AM54 °FPartly sunny.5 mph82%30.07 "HgN/A
6:20 AM52 °FOvercast.5 mph82%30.07 "HgN/A
5:20 AM54 °FOvercast.6 mph77%30.07 "HgN/A
4:20 AM54 °FCool.5 mph77%30.07 "HgN/A
3:20 AM54 °FCool.3 mph72%30.07 "HgN/A
2:20 AM55 °FCool.3 mph67%30.07 "HgN/A
1:20 AM55 °FCool.6 mph67%30.07 "HgN/A
12:20 AM57 °FCool.6 mph63%30.09 "HgN/A
11:20 PM
Sat, May 23
57 °FRefreshingly cool.5 mph59%30.09 "HgN/A
10:20 PM59 °FRefreshingly cool.6 mph55%30.07 "HgN/A
9:20 PM59 °FRefreshingly cool.5 mph55%30.07 "HgN/A
8:20 PM61 °FScattered showers. Broken clouds.3 mph48%30.07 "HgN/A
7:20 PM61 °FPartly sunny.5 mph48%30.07 "HgN/A
6:20 PM63 °FMostly cloudy.5 mph45%30.07 "HgN/A
5:20 PM63 °FPartly sunny.6 mph42%30.07 "HgN/A
4:20 PM63 °FBroken clouds.7 mph42%30.07 "HgN/A
3:20 PM63 °FPartly sunny.8 mph42%30.07 "HgN/A
2:20 PM63 °FScattered clouds.8 mph42%30.09 "HgN/A
1:20 PM63 °FBroken clouds.8 mph42%30.09 "HgN/A
12:20 PM63 °FScattered clouds.9 mph45%30.09 "HgN/A
11:20 AM61 °FPartly sunny.8 mph45%30.12 "HgN/A
Weather by CustomWeather, © 2015

See weather overviewHow to use our weather pages